EHI
0 0 0 0 0 0 0 1 1 1 0 0 1 1 1 1 1 0 0 1 2 2 2 2 1 1 1 1 0 0 0 0 0 0 0 0 0 0 0 0 0 0 0
0 0 0 0 0 0 0 0 0 0 0 0 1 1 1 0 0 0 1 2 2 1 1 1 0 0 0 0 0 0 0 0 0 0 0 0 0 0 0 0 0 0 0
0 0 0 0 0 0 0 0 0 0 0 0 1 1 0 0 0 0 1 1 1 0 0 0 0 0 0 0 0 0 0 0 0 0 0 0 0 0 0 0 0 0 0
0 0 0 0 0 0 0 0 0 0 0 0 0 0 0 0 0 0 0 0 0 0 0 0 0 0 0 0 0 0 0 0 0 0 0 0 0 0 0 0 0 0 0
0 0 0 0 0 0 0 0 0 0 0 0 0 0 0 0 0 0 0 0 0 0 0 0 0 0 0 0 0 0 0 0 0 0 0 0 0 0 0 0 0 0 0
0 0 0 0 0 0 0 0 0 0 0 0 0 0 0 0 0 0 0 0 0 0 0 0 0 0 0 0 0 0 0 0 0 0 0 0 0 0 0 0 0 0 0
0 0 0 0 0 0 0 0 0 0 0 0 0 0 0 0 0 0 0 0 0 0 0 0 0 0 0 0 0 0 0 0 0 0 0 0 0 0 0 0 0 0 0
0 0 0 0 0 0 0 0 0 0 0 0 0 0 0 0 0 0 0 0 0 0 0 0 0 0 0 0 0 0 0 0 0 0 0 0 0 0 0 0 0 0 0
0 0 0 0 0 0 0 0 0 0 0 0 0 0 0 0 0 0 0 0 0 0 0 0 0 0 0 0 0 0 0 0 0 0 0 0 0 0 0 0 0 0 0
0 0 0 0 0 0 0 0 0 0 0 0 0 0 0 0 0 0 0 0 0 0 0 0 0 0 0 0 0 0 0 0 0 0 0 0 0 0 0 0 0 0 0
0 0 0 0 0 0 0 0 0 0 0 0 0 0 0 0 0 0 0 0 0 0 0 0 0 0 0 0 0 0 0 0 0 0 0 0 0 0 0 0 0 0 0
0 0 0 0 0 0 0 0 0 0 0 0 0 0 0 0 0 0 0 0 0 0 0 0 0 0 0 0 0 0 0 0 0 0 0 0 0 0 0 0 0 0 0
0 0 0 0 0 0 0 0 0 0 0 0 0 0 0 0 0 0 0 0 0 0 0 0 0 0 0 0 0 0 0 0 0 0 0 0 0 0 0 0 0 0 0
0 0 0 0 0 0 0 0 0 0 0 0 0 0 0 0 0 0 0 0 0 0 0 0 0 0 0 0 0 0 0 0 0 0 0 0 0 0 0 0 0 0 0
0 0 0 0 0 0 0 0 0 0 0 0 0 0 0 0 0 0 0 0 0 0 0 0 0 0 0 0 0 0 0 0 0 0 0 0 0 0 0 0 0 0 0
0 0 0 0 0 0 0 0 0 0 0 0 0 0 0 0 0 0 0 0 0 0 0 0 0 0 0 0 0 0 0 0 0 0 0 0 0 0 0 0 0 0 0
0 0 0 0 0 0 0 0 0 0 0 0 0 0 0 0 0 0 0 0 0 0 0 0 0 0 0 0 0 0 0 0 0 0 0 0 0 0 0 0 0 0 0
0 0 0 0 0 0 0 0 0 0 0 0 0 0 0 0 0 0 0 0 0 0 0 0 0 0 0 0 0 0 0 0 0 0 0 0 0 0 0 0 0 0 0
0 0 0 0 0 0 0 0 0 0 0 0 0 0 0 0 0 0 0 0 0 0 0 0 0 0 0 0 0 0 0 0 0 0 0 0 0 0 0 0 0 0 0
0 0 0 0 0 0 0 0 0 0 0 0 0 0 0 0 0 0 0 0 0 0 0 0 0 0 0 0 0 0 0 0 0 0 0 0 0 0 0 0 0 0 0
0 0 0 0 0 0 0 0 0 0 0 0 0 0 0 0 0 0 0 0 0 0 0 0 0 0 0 0 0 0 0 0 0 0 0 0 0 0 0 0 0 0 0
0 0 0 0 0 0 0 0 0 0 0 0 0 0 0 0 0 0 0 0 0 0 0 0 0 0 0 0 0 0 0 0 0 0 0 0 0 0 0 0 0 0 0
0 0 0 0 0 0 0 0 0 0 0 0 0 0 0 0 0 0 0 0 0 0 0 0 0 0 0 0 0 0 0 0 0 0 0 0 0 0 0 0 0 0 0
0 0 0 0 0 0 0 0 0 0 0 0 0 0 0 0 0 0 0 0 0 0 0 0 0 0 0 0 0 0 0 0 0 0 0 0 0 0 0 0 0 0 0
0 0 0 0 0 0 0 0 0 0 0 0 0 0 0 0 0 0 0 0 0 0 0 0 0 0 0 0 0 0 0 0 0 0 0 0 0 0 0 0 0 0 0
0 0 0 0 0 0 0 0 0 0 0 0 0 0 0 0 0 0 0 0 0 0 0 0 0 0 0 0 0 0 0 0 0 0 0 0 0 0 0 0 0 0 0
Wind_Speed
7 7 8 7 7 7 7 7 6 6 6 5 5 4 3 2 1 1 1 2 2 2 2 3 3 3 3 3 3 3 3 3 3 1 1 2 2 2 2 2 3 4 4
6 7 7 7 8 8 8 8 7 7 6 6 5 4 4 4 3 2 1 2 2 2 2 2 2 2 3 3 3 3 3 3 3 2 2 2 2 3 3 3 4 5 4
6 7 7 8 8 8 8 8 8 8 7 7 7 6 6 5 4 4 2 1 2 2 3 3 3 3 2 2 3 3 2 3 2 3 2 2 2 2 3 3 4 3 5
6 7 7 8 8 8 8 8 8 8 8 8 8 8 7 6 7 6 4 3 3 3 2 3 3 3 2 2 2 3 2 3 3 3 3 2 2 2 3 3 3 2 3
6 7 7 7 7 7 7 8 8 8 9 8 8 8 7 7 8 8 6 6 5 6 5 5 4 5 5 3 3 2 2 2 3 3 3 2 2 2 2 2 4 4 4
6 6 6 6 7 7 7 7 7 8 8 8 8 8 9 9 12 12 8 5 5 5 5 4 5 6 7 8 8 6 5 4 3 3 3 3 3 3 3 3 4 4 3
6 5 6 6 7 7 7 7 6 7 7 7 7 7 8 10 14 13 11 5 5 5 5 4 4 6 6 4 6 8 8 8 5 3 4 4 3 3 4 4 3 3 3
5 5 6 6 6 6 7 7 6 5 5 5 6 7 7 11 16 13 9 5 5 5 5 6 5 6 6 5 5 7 7 7 6 5 5 4 4 3 3 4 5 5 4
5 5 5 5 5 6 6 6 5 5 5 5 5 6 7 9 16 14 10 4 4 6 6 7 7 7 10 8 6 7 6 5 8 10 9 9 9 9 6 4 4 4 4
4 4 4 4 4 5 5 5 4 4 4 4 5 6 7 7 14 16 12 4 5 5 6 7 11 9 10 8 5 5 6 4 4 5 6 6 6 7 7 4 3 4 3
4 4 3 3 3 4 4 4 4 4 4 4 5 5 6 8 11 14 13 5 4 5 5 5 5 11 11 10 7 5 4 3 4 5 5 5 5 5 5 5 4 4 4
2 2 2 3 4 4 3 4 4 4 4 5 4 5 4 6 8 10 12 11 8 6 4 4 4 8 9 8 6 6 6 5 4 4 4 4 4 4 4 4 6 6 5
1 1 1 1 2 3 3 4 4 4 4 4 4 4 4 4 6 12 11 10 9 5 3 4 4 6 6 5 7 7 5 4 4 4 5 4 3 3 3 4 5 6 6
1 1 1 2 2 3 3 3 4 4 4 4 4 4 4 4 5 6 5 4 5 5 3 3 4 5 4 4 4 4 4 4 4 4 4 3 3 3 3 3 3 4 5
2 2 3 3 2 2 2 2 3 3 2 2 3 4 3 4 4 7 5 4 4 3 3 1 2 2 3 3 3 4 4 4 4 3 3 3 3 3 2 2 2 3 4
1 1 1 2 2 1 2 2 2 2 3 3 3 3 2 3 3 6 7 8 8 8 4 3 3 3 3 3 3 3 3 3 3 3 3 3 2 2 2 2 2 3 4
1 1 1 1 1 2 2 2 2 2 1 0 0 2 2 1 3 4 5 7 7 5 3 3 3 3 3 3 3 3 2 2 2 2 2 3 2 2 2 2 2 3 3
2 1 2 2 1 2 1 1 1 2 2 2 3 4 3 2 2 3 4 4 2 1 2 2 2 2 2 2 2 2 2 2 2 2 2 2 2 2 2 2 2 3 3
3 2 3 2 2 2 2 2 2 2 2 2 3 3 5 4 3 4 3 1 0 1 2 2 2 2 2 2 2 2 2 1 1 2 2 2 2 2 2 2 3 3 2
2 3 2 2 2 3 3 3 3 2 2 1 3 3 3 3 2 2 2 1 0 1 1 2 1 1 1 1 1 1 1 1 1 2 2 1 1 2 2 2 2 2 2
3 4 6 3 3 3 3 3 3 2 2 2 2 3 5 2 2 2 2 2 2 2 2 2 2 2 1 1 0 1 0 1 1 1 1 1 1 1 1 1 2 2 2
3 3 4 4 4 4 3 3 3 3 3 3 3 4 6 3 2 2 3 3 3 3 3 3 2 3 3 2 1 1 1 1 1 1 1 2 1 1 1 1 1 2 2
4 4 4 4 4 4 4 3 3 3 3 3 4 4 5 4 4 4 3 4 4 3 3 3 3 3 3 3 2 2 1 2 2 2 1 1 1 1 1 1 1 2 2
5 5 4 3 3 4 4 4 4 4 4 4 4 4 5 6 5 5 4 4 4 4 4 4 4 5 6 4 3 2 1 1 2 1 1 0 1 1 1 1 1 2 2
5 5 4 4 3 3 4 4 4 4 4 4 4 4 4 4 5 5 5 5 6 5 6 5 4 4 6 7 6 5 6 6 4 2 1 0 1 1 1 2 2 2 2
5 5 4 4 4 4 4 4 4 4 4 3 3 3 4 4 4 4 5 5 5 5 6 5 6 8 7 6 7 10 11 9 7 4 1 1 2 2 2 2 3 2 3
Wind_Direction
5 4 3 2 9 13 12 5 4 2 3 6 11 12 12 18 30 88 115 132 149 153 154 169 179 173 172 179 178 185 185 171 182 194 156 159 148 151 156 163 148 138 147
7 6 6 6 13 16 14 8 7 8 7 10 14 17 27 33 35 51 89 125 138 148 142 133 155 163 170 171 174 181 178 179 172 171 148 150 163 159 161 161 150 141 139
15 12 11 15 14 13 13 13 12 11 14 17 18 24 28 26 25 19 39 87 133 145 135 137 138 138 152 159 162 155 161 163 149 148 146 146 141 143 140 130 124 119 135
27 20 16 17 15 15 14 16 16 14 19 21 23 28 28 31 30 20 23 44 68 79 97 103 109 124 125 126 131 133 139 139 138 135 139 134 123 123 122 124 116 109 111
37 28 17 17 17 17 16 19 19 18 22 23 26 29 29 33 29 23 21 43 53 56 56 64 74 86 85 87 102 107 116 120 129 134 136 125 124 124 132 130 121 110 88
45 32 18 21 19 14 19 21 20 21 22 27 29 30 34 32 23 26 26 41 52 58 61 61 69 76 78 79 85 91 95 103 118 122 128 130 131 129 125 128 128 125 111
44 38 26 24 21 14 17 21 22 24 25 30 30 30 36 30 26 24 24 43 54 54 54 54 59 65 67 80 85 79 65 62 83 107 108 113 122 132 127 123 125 115 116
43 38 35 27 20 15 15 16 21 24 29 30 30 28 34 28 25 23 24 47 55 57 54 53 59 56 48 60 82 78 68 50 58 75 84 82 80 83 103 121 124 109 98
47 42 37 29 21 18 15 13 17 21 26 29 30 33 35 27 23 25 30 49 56 62 61 57 56 53 39 57 86 93 87 75 72 83 90 92 81 73 82 97 110 118 116
45 48 41 31 27 25 13 9 12 20 23 33 40 42 40 34 28 29 31 45 54 58 63 58 49 46 41 54 77 93 93 94 97 92 84 81 80 74 73 86 105 121 123
46 45 35 25 36 39 15 5 12 19 26 37 47 49 49 40 31 32 33 36 43 56 55 48 40 40 43 51 66 74 84 92 87 89 84 77 69 64 59 59 64 92 105
81 64 50 37 27 31 16 10 15 16 28 34 38 43 47 43 35 29 36 42 44 59 58 49 41 41 44 50 58 57 58 67 80 83 80 72 69 65 62 65 68 67 74
132 128 108 89 75 34 15 20 20 20 26 29 31 34 40 40 30 27 34 46 46 54 57 59 51 43 44 55 57 53 53 68 76 81 83 78 77 77 71 69 68 65 56
189 169 137 82 70 61 32 27 38 26 21 20 23 26 31 41 24 8 5 30 44 47 40 52 53 49 56 52 47 49 59 72 87 92 93 88 78 71 69 78 93 89 70
218 180 143 126 107 85 86 49 53 70 64 34 15 17 26 30 11 5 8 9 9 12 353 38 57 55 56 52 49 48 51 59 67 74 88 89 84 81 74 64 80 90 98
271 92 118 142 147 161 154 131 62 89 114 87 65 55 69 60 15 14 11 4 1 1 21 50 54 55 60 61 60 55 54 53 62 75 84 92 94 97 94 77 81 99 106
231 193 177 172 161 193 196 183 175 185 219 298 79 76 84 38 11 2 357 351 341 353 39 60 61 54 54 58 59 64 64 50 49 70 86 92 90 87 93 92 90 96 103
225 191 191 183 204 223 217 223 205 178 186 200 213 215 208 227 293 317 333 341 343 32 64 68 69 63 58 60 56 58 65 53 48 64 77 83 88 92 93 95 96 102 116
217 198 194 195 207 220 218 228 231 219 209 179 155 187 216 223 251 282 311 308 45 89 86 81 77 75 74 77 65 46 57 71 67 78 82 82 88 98 100 103 103 95 95
221 200 188 211 227 226 220 221 225 224 225 202 166 167 176 193 211 209 208 213 140 124 126 129 121 100 92 93 93 60 49 72 67 77 87 82 78 98 119 123 130 133 122
216 196 192 214 236 239 232 226 226 221 214 203 176 157 162 189 206 189 181 184 178 174 166 160 155 150 133 119 143 205 202 152 135 119 120 109 99 96 98 111 119 119 115
224 209 192 206 217 227 234 234 232 231 227 212 181 172 182 201 228 219 196 186 183 177 166 166 182 177 167 175 205 219 201 170 147 141 135 131 121 122 120 115 127 136 144
225 233 220 215 210 213 216 230 239 238 231 223 203 179 181 204 215 215 206 190 178 176 175 176 192 186 178 184 191 185 193 193 166 139 138 153 167 173 160 164 162 148 152
215 233 233 224 218 215 215 224 230 229 225 223 221 206 189 195 203 206 201 187 179 182 181 183 196 202 190 179 181 181 175 126 109 110 119 148 174 177 173 175 181 183 165
207 225 230 227 224 222 225 232 236 237 229 220 220 217 207 196 197 198 194 185 180 185 189 186 190 204 206 190 181 169 153 143 123 88 70 241 241 222 201 199 199 203 193
201 218 226 224 222 223 227 234 240 244 241 232 224 219 214 208 203 199 192 186 184 188 191 192 195 196 201 202 192 176 170 171 167 165 156 270 249 230 213 220 228 219 212